Temperature
15 15 15 15 13 11 13 14 15 15 16 16 16 16 14 14 15 14 13 13 13 13 13 13 13 13 13 13 13 13 13 14 14 14 14 13 13 13 13 13 13 13 14 14 14 14 14 14 14
14 15 15 15 12 12 13 13 14 15 16 16 16 15 13 13 13 13 13 13 13 13 13 13 13 13 13 13 13 13 13 13 13 13 13 13 13 13 13 13 13 13 13 13 14 14 14 14 14
14 14 15 11 11 12 14 14 14 15 16 16 14 14 13 12 12 12 13 12 13 13 13 13 12 12 13 13 13 13 13 13 13 13 13 13 13 13 13 13 13 13 13 13 13 13 13 13 13
14 14 14 11 12 12 14 14 14 14 15 15 14 12 12 12 12 12 12 12 12 12 12 12 12 12 12 13 13 13 13 13 13 13 13 13 13 12 12 12 12 13 13 13 13 13 13 13 13
14 14 11 11 12 12 13 14 14 13 14 14 13 11 11 11 12 12 12 12 12 12 12 12 12 12 12 12 12 12 12 12 12 12 12 12 12 12 12 12 12 12 12 12 13 13 13 13 13
13 11 10 11 11 12 13 14 14 13 13 14 13 10 10 11 11 12 12 12 12 12 12 12 11 12 12 12 12 12 12 12 12 12 12 12 12 12 12 12 12 12 12 12 12 12 12 12 12
12 10 10 11 11 12 13 14 13 12 12 13 13 10 9 10 11 11 11 11 11 11 11 11 11 11 11 12 12 12 12 12 12 12 12 12 12 12 12 12 12 11 11 11 12 12 12 12 12
13 9 11 11 11 12 13 13 13 13 12 13 13 10 9 10 10 10 11 11 11 11 11 11 11 11 11 11 11 12 11 12 12 12 12 12 12 12 12 12 11 11 11 11 11 11 12 12 12
12 9 10 11 12 12 12 12 13 13 12 11 11 11 11 10 10 10 10 10 10 10 10 11 11 11 11 11 11 11 11 11 11 11 12 12 12 12 11 11 11 11 11 11 11 11 11 11 11
11 9 10 11 11 11 11 11 11 11 10 10 10 10 10 10 10 10 10 10 10 10 10 10 10 10 10 10 11 11 11 11 11 11 11 11 11 11 11 11 11 11 11 11 11 11 11 11 11
10 9 10 11 11 11 11 11 11 10 9 9 9 9 9 9 9 9 9 9 9 9 9 9 9 10 10 10 10 10 10 10 11 11 11 11 11 11 11 11 10 10 11 11 11 11 11 11 11
9 9 10 10 11 11 10 10 9 9 10 10 10 10 10 9 9 9 9 9 9 9 9 9 9 9 9 10 10 10 10 10 10 10 10 10 10 10 10 10 10 10 10 10 10 10 10 10 10
9 9 10 10 10 10 10 9 9 9 9 10 9 9 9 9 9 8 8 8 8 8 9 8 9 9 9 9 9 10 10 10 10 10 10 10 10 10 10 10 10 10 10 10 10 10 10 10 10
9 9 9 9 9 9 8 8 8 8 9 9 8 8 8 8 8 8 8 8 8 8 8 8 8 8 9 9 9 9 9 9 9 9 10 9 9 9 9 9 9 9 9 9 9 9 9 9 9
9 8 8 8 9 9 8 7 7 8 8 8 7 7 7 8 8 8 8 8 8 8 8 8 8 8 8 8 9 9 9 9 9 9 9 9 9 9 9 9 9 9 9 9 9 9 9 9 9
8 7 7 8 8 8 8 7 7 8 7 6 6 6 7 7 7 7 7 7 7 8 8 8 8 8 8 8 8 8 8 8 9 9 9 9 9 9 9 9 8 8 8 8 8 8 8 8 8
6 6 7 7 7 7 6 6 6 7 6 5 6 6 6 6 6 7 7 7 7 7 7 7 7 7 7 7 8 8 8 8 8 8 8 8 8 8 8 8 8 8 8 8 8 8 8 8 8
6 6 6 7 7 6 5 5 6 6 6 5 5 5 5 5 6 6 6 6 6 6 7 7 7 7 7 7 7 7 7 7 8 8 8 8 8 8 8 8 8 8 8 8 8 8 7 7 7
6 6 6 7 7 6 5 5 5 5 5 4 4 4 4 4 5 5 6 6 6 6 6 6 6 6 6 6 7 7 7 7 7 7 7 7 7 7 7 7 7 7 7 7 7 7 7 7 7
6 6 6 6 7 6 5 5 5 4 4 4 4 3 3 4 4 4 5 5 5 6 6 6 6 6 6 6 6 6 6 7 7 7 7 7 7 7 7 7 7 7 7 7 7 7 7 6 6
5 5 5 5 6 6 5 4 4 4 4 4 4 3 3 3 3 4 4 4 5 5 5 5 5 5 5 5 5 5 6 6 6 6 6 6 6 6 7 6 6 6 6 6 6 6 7 6 6
5 6 6 5 5 4 5 4 4 4 3 3 2 2 3 3 3 3 4 4 4 5 5 5 5 5 5 5 5 5 5 5 5 6 6 6 6 6 6 6 6 6 6 6 6 6 6 6 6
5 5 5 5 4 4 4 3 3 3 3 2 2 2 2 2 3 3 3 3 4 4 4 4 4 4 4 4 4 4 5 5 5 5 5 5 5 5 5 6 6 6 6 6 6 5 5 5 5
5 4 4 3 3 3 3 3 3 2 3 3 2 2 2 2 2 2 3 3 3 3 3 3 4 4 4 4 4 4 4 4 4 4 4 5 5 5 5 5 5 5 5 5 5 5 5 5 5
4 3 3 3 2 3 3 3 3 2 2 2 2 2 2 2 2 2 2 2 3 3 3 3 3 3 3 3 3 3 3 3 4 4 4 4 4 4 4 5 5 5 5 5 5 5 5 4 4
3 3 3 3 3 2 2 2 2 2 2 2 2 2 2 1 1 1 2 2 2 2 2 2 2 3 3 3 3 2 2 3 3 3 4 4 4 4 4 4 4 4 4 4 4 4 4 4 4
3 2 3 2 1 1 2 1 2 2 1 1 1 1 1 1 1 1 1 1 2 2 2 2 2 2 2 2 2 2 2 2 3 3 3 3 3 3 4 4 4 4 4 4 4 4 4 4 3
3 2 1 1 2 2 2 1 2 2 1 0 -0 -0 0 1 1 1 1 1 1 1 1 1 1 2 2 1 1 1 2 2 2 2 3 3 3 3 3 3 3 3 3 3 3 3 3 3 3
2 2 1 1 1 1 1 2 1 1 1 -0 -0 0 0 0 0 0 0 0 1 1 1 1 1 1 1 1 1 1 1 1 2 2 2 2 2 2 2 2 2 2 2 2 3 3 3 3 3
1 1 0 1 0 -0 0 1 1 -0 -0 -1 -0 -0 0 -0 -0 -0 -0 -0 -0 0 0 0 0 0 1 1 1 1 1 1 1 1 1 2 2 2 2 2 2 2 2 2 2 2 2 2 2
Wind_Speed
6 4 3 4 4 2 5 6 4 2 1 1 2 6 7 5 4 5 2 4 6 7 8 10 11 11 11 11 12 12 11 11 11 12 12 12 12 13 13 13 13 14 14 14 14 15 16 17 17
3 2 4 4 4 3 6 7 6 5 4 3 3 4 5 3 2 6 3 4 8 8 8 9 11 12 12 11 11 12 12 11 11 12 12 12 12 12 13 13 14 14 14 15 15 15 16 17 17
3 1 4 4 4 8 8 5 7 4 2 2 2 3 4 4 3 3 3 7 9 8 8 9 11 12 12 11 11 12 12 12 12 12 12 13 13 12 12 13 14 14 14 15 15 16 16 17 18
2 3 3 3 7 8 7 4 4 3 1 2 4 4 2 1 2 3 6 9 9 7 8 9 11 11 11 12 12 12 12 12 12 12 13 13 13 13 13 13 13 13 14 15 16 16 17 17 18
3 3 2 4 7 6 5 3 3 3 2 1 4 4 2 3 3 6 8 10 9 7 8 9 11 11 11 11 12 12 12 12 12 13 13 13 13 13 13 13 13 13 15 15 16 16 17 17 18
3 3 4 7 8 5 4 3 2 1 2 1 4 5 2 1 4 5 7 8 9 8 8 8 10 11 11 11 11 11 12 12 12 13 13 13 13 13 13 14 14 14 15 15 15 16 17 18 18
4 4 5 6 5 5 5 3 3 3 2 2 4 5 2 1 2 5 7 8 8 9 8 7 8 9 10 10 11 10 11 12 12 13 13 13 13 13 13 14 14 14 15 15 16 16 17 17 18
4 4 3 4 5 6 3 1 2 3 2 1 4 6 4 3 2 6 7 7 7 7 7 7 7 8 8 9 10 10 11 11 12 13 14 14 14 13 13 13 14 15 15 15 16 16 17 17 17
4 2 6 6 5 4 1 0 2 1 4 3 2 2 3 6 6 7 7 6 5 5 4 6 6 7 8 8 9 11 11 11 11 12 14 13 13 12 12 13 14 15 15 15 15 16 16 16 17
3 5 8 4 3 3 1 1 1 2 3 2 3 4 6 7 7 7 7 6 5 5 4 4 5 5 6 7 9 9 9 10 11 11 12 12 12 12 11 13 14 14 14 14 15 15 15 14 14
4 6 4 2 2 2 2 1 0 4 2 3 3 5 7 7 6 6 6 6 5 5 4 4 4 5 5 6 7 8 8 9 10 11 11 11 11 11 11 11 11 12 13 12 12 13 12 12 12
3 3 3 2 1 2 3 2 1 3 4 3 6 9 9 8 7 6 6 5 4 4 4 4 4 4 5 6 6 7 6 7 8 9 11 10 9 8 9 9 9 10 10 11 10 10 12 13 13
4 3 2 2 1 2 2 2 2 3 2 2 6 7 8 8 6 4 4 5 4 4 4 4 4 4 4 5 5 6 6 7 8 9 10 11 9 7 8 8 9 9 9 10 9 10 11 11 12
3 2 2 2 3 2 2 2 2 4 2 4 6 7 7 8 6 4 4 5 5 5 5 4 5 5 5 4 4 5 6 8 8 9 9 11 10 9 8 7 7 8 9 9 10 10 10 9 10
1 1 3 4 4 3 2 4 5 4 4 5 5 6 6 6 6 7 7 6 6 6 5 5 5 5 5 5 5 5 6 7 7 8 9 10 10 10 9 7 6 7 9 10 10 10 10 8 8
1 0 4 5 4 3 5 8 5 3 5 4 4 4 4 5 5 5 5 4 5 5 5 5 5 5 5 5 5 5 6 7 7 8 9 10 10 11 9 7 6 8 9 9 8 6 6 5 5
0 2 5 4 3 3 5 6 4 2 5 4 3 4 4 3 3 3 3 4 4 5 5 5 4 5 5 5 5 6 6 6 6 8 8 9 10 10 9 8 7 9 8 7 6 5 5 5 5
4 4 4 5 3 3 5 6 4 2 3 3 3 3 2 3 4 3 3 3 4 3 4 4 4 3 4 4 4 4 4 4 5 6 7 9 9 10 9 8 8 9 7 5 5 6 5 5 6
3 3 5 5 3 3 6 7 6 4 2 3 3 3 3 3 2 1 2 3 3 3 3 3 3 3 3 3 4 4 3 2 3 4 6 8 8 9 9 7 7 7 6 6 6 6 7 4 5
2 3 4 4 2 3 4 7 6 3 4 5 5 4 3 1 1 1 1 2 3 3 3 3 2 3 3 2 2 3 3 2 3 4 5 7 8 8 8 8 7 6 5 6 6 6 4 3 3
4 5 5 5 3 1 1 5 5 3 2 1 2 3 2 3 3 2 1 2 3 3 3 3 2 3 2 2 2 2 2 2 2 2 2 4 7 7 7 8 8 7 6 6 6 7 6 5 2
6 4 4 3 2 4 4 5 6 4 2 2 3 2 3 2 2 2 2 2 3 4 3 3 3 2 3 3 3 4 4 3 3 3 3 3 6 7 7 8 8 7 6 6 6 5 4 7 5
5 3 3 3 3 2 2 3 6 2 3 4 4 4 3 3 4 3 3 3 2 2 3 3 3 2 2 3 4 4 3 1 2 2 3 2 4 5 7 7 8 7 6 6 6 5 5 5 6
1 2 2 3 2 3 5 5 6 4 6 5 4 4 4 3 3 2 1 1 1 0 1 2 3 2 2 2 3 4 4 3 3 3 4 3 2 3 5 6 7 7 6 6 7 6 6 5 5
3 3 2 2 1 6 3 4 7 5 4 4 4 4 3 3 2 2 1 1 0 0 0 1 2 2 2 3 3 4 4 5 6 5 5 5 3 3 4 5 6 6 6 7 7 6 6 6 6
2 5 5 4 4 4 2 6 6 3 2 1 1 2 1 1 2 2 2 2 2 2 1 1 2 2 3 3 3 3 4 4 4 4 4 5 5 4 5 6 6 6 6 7 6 5 5 5 6
3 3 4 3 1 3 5 5 5 1 1 1 1 1 2 3 2 2 2 2 2 2 2 2 2 2 2 3 3 3 3 4 4 4 4 4 4 5 6 6 6 5 6 6 6 5 5 5 5
2 4 3 3 3 5 5 5 5 5 4 4 3 3 3 3 2 2 2 2 2 2 2 2 2 3 3 2 3 3 4 4 4 4 4 4 5 5 6 5 6 5 5 6 5 4 5 6 5
1 1 2 3 3 4 5 6 4 6 4 5 5 4 3 3 3 2 2 1 1 1 1 1 2 2 2 2 3 3 3 3 4 4 5 5 4 6 6 6 6 6 5 5 5 4 5 6 5
3 4 4 3 4 4 4 7 2 2 2 3 4 3 3 2 2 2 1 1 1 1 1 2 2 2 3 3 3 3 2 3 3 4 4 4 5 6 6 6 5 6 5 5 5 6 6 7 7
Wind_Direction
326 358 73 62 65 67 231 241 219 208 200 203 98 102 115 118 132 154 149 127 124 131 144 143 138 131 129 129 125 121 116 112 109 108 107 105 102 98 96 95 93 92 91 92 93 92 92 92 91
340 37 65 71 122 195 245 239 223 223 198 149 92 92 90 93 77 111 111 130 126 127 132 139 137 133 129 128 127 123 120 116 114 113 111 108 104 101 99 97 94 91 92 95 94 94 94 93 93
333 79 96 103 165 199 220 224 213 232 236 139 85 58 104 124 126 140 152 132 119 118 122 130 134 135 131 129 127 125 124 122 119 118 115 111 107 105 100 97 94 93 94 97 96 95 95 95 94
61 58 70 135 214 220 217 212 195 186 275 65 117 83 69 37 155 143 127 122 116 111 119 129 126 128 130 130 129 127 125 123 121 121 118 114 111 107 102 99 96 95 99 100 99 98 96 95 94
65 97 137 220 230 241 242 233 184 180 183 128 123 123 91 341 78 108 117 119 118 110 112 125 127 124 122 128 132 129 126 123 121 121 118 114 111 108 104 101 98 98 102 102 101 100 97 95 94
74 94 166 220 232 248 249 225 203 189 211 81 110 127 153 6 90 108 116 115 115 111 104 117 124 121 122 121 126 130 129 125 121 121 119 115 111 109 106 104 102 100 102 101 101 101 97 96 95
132 138 197 212 227 243 244 213 180 195 184 212 135 123 162 295 95 108 114 111 108 107 102 98 108 112 116 118 117 117 122 125 122 120 116 113 112 111 108 106 105 101 98 99 98 98 97 96 94
139 133 207 215 214 234 248 178 170 154 185 121 116 138 177 219 139 107 108 106 106 104 103 102 102 103 105 110 114 117 114 115 119 118 114 111 111 110 108 106 105 103 100 98 96 94 94 95 92
111 140 217 215 204 227 255 198 325 88 109 77 60 138 167 136 115 109 105 98 105 105 101 107 105 105 109 109 107 109 112 111 109 112 111 107 102 101 102 104 104 103 100 99 97 94 91 91 89
128 194 223 218 195 184 211 187 221 85 83 71 41 36 105 118 119 122 131 139 141 140 127 118 114 113 114 115 108 104 109 110 104 110 110 107 105 103 101 101 101 100 97 95 94 92 89 86 84
166 204 216 226 208 170 202 242 227 147 196 201 177 155 138 129 131 142 152 153 158 157 146 133 126 124 122 119 115 109 113 111 109 110 111 109 103 101 96 95 93 93 92 89 88 83 82 84 84
180 232 211 221 188 168 194 212 228 198 220 200 170 156 151 149 158 167 171 164 156 151 154 146 135 132 128 129 128 124 121 118 116 118 117 114 106 102 98 94 94 92 92 91 88 86 86 85 85
216 238 235 234 194 159 145 192 216 247 244 130 137 146 160 166 176 177 174 163 156 160 159 159 150 144 138 131 134 132 134 132 131 128 123 123 118 114 107 101 98 96 98 97 94 92 91 87 83
203 213 255 251 237 208 178 253 231 247 163 135 148 165 177 177 178 176 180 176 174 172 171 167 161 154 144 137 138 140 144 140 137 135 131 128 124 122 118 110 103 102 104 103 101 100 95 89 87
178 237 295 268 225 212 155 282 243 233 149 155 175 184 189 190 180 189 192 188 181 176 173 171 167 155 150 149 151 145 148 145 140 138 136 132 128 126 125 119 113 112 112 109 104 98 94 91 87
79 146 259 265 217 194 163 246 258 195 158 178 192 197 199 205 194 196 191 185 180 172 171 174 170 159 157 155 155 149 150 147 146 145 140 137 135 133 127 123 121 120 116 113 110 106 103 94 89
63 230 242 269 222 180 183 237 266 198 159 178 196 199 202 214 219 206 183 171 168 171 170 169 162 163 159 156 154 150 147 144 148 147 144 144 142 140 135 131 130 127 118 114 118 111 114 110 97
220 226 238 240 227 168 196 234 256 223 169 192 201 197 203 216 235 219 183 168 159 159 157 155 145 146 151 147 141 135 135 139 146 144 149 150 148 146 139 135 134 132 124 121 122 121 111 118 116
194 218 248 242 212 184 214 242 256 225 200 219 207 196 211 235 263 155 162 157 142 132 134 141 143 144 141 154 160 159 167 172 166 153 156 155 151 150 145 141 141 140 139 143 135 131 120 112 121
234 250 267 281 254 203 231 258 260 218 204 207 199 198 209 233 46 85 125 149 155 151 143 137 145 151 155 161 172 169 161 176 177 160 158 159 156 158 157 151 152 148 141 144 144 140 140 143 152
243 229 244 268 308 210 251 278 253 242 199 217 209 192 195 193 196 199 183 184 173 164 166 170 167 155 146 127 115 112 107 117 142 164 176 174 167 168 164 159 156 154 151 162 164 160 154 161 185
243 234 241 251 235 250 199 259 257 231 223 250 254 226 220 219 211 205 202 206 202 199 180 170 171 150 148 144 152 151 166 183 192 186 187 178 172 168 168 163 162 163 162 167 175 169 166 161 170
234 254 241 238 200 267 234 227 278 221 241 251 244 235 232 227 213 209 211 213 214 200 185 179 167 155 146 157 166 169 166 183 166 164 169 176 173 173 172 170 165 168 171 172 173 170 173 175 174
226 31 33 49 96 257 232 201 269 224 226 236 237 234 238 236 228 222 211 185 30 100 168 175 170 172 167 163 175 183 178 167 161 178 181 189 189 180 180 176 173 174 177 180 180 178 179 181 177
71 90 37 349 296 250 214 203 249 241 222 215 232 239 241 229 222 226 211 190 136 124 184 196 187 193 188 185 194 202 198 186 189 193 192 192 194 198 200 185 183 182 185 186 182 179 187 186 181
201 155 168 207 233 275 261 227 248 249 227 200 241 236 229 237 224 223 219 206 212 218 219 217 211 212 204 204 213 212 202 199 205 201 198 198 201 201 195 190 191 189 186 184 181 179 191 185 187
162 195 185 157 231 269 262 276 293 245 284 273 299 266 233 237 236 233 233 214 215 220 220 221 227 230 222 222 220 217 211 207 208 207 206 203 199 194 189 189 188 188 185 184 179 189 190 186 190
164 158 119 155 199 255 273 260 247 243 253 262 266 257 257 255 251 254 242 233 231 232 241 239 237 233 232 230 225 228 218 218 211 203 209 210 204 188 185 189 188 186 184 183 179 191 188 186 191
134 160 166 172 187 200 259 264 232 218 221 237 253 255 251 252 243 243 254 260 259 288 276 262 251 249 246 241 235 229 221 215 209 207 213 208 201 186 186 192 187 186 186 183 185 194 189 189 191
190 187 161 183 239 213 232 266 293 215 232 246 260 267 272 269 256 241 234 276 308 285 275 272 269 261 253 246 232 226 216 207 208 212 209 203 199 190 187 189 189 187 187 186 189 195 192 191 193
Height
1505 1506 1508 1511 1515 1522 1520 1513 1507 1505 1504 1504 1503 1503 1505 1510 1513 1520 1518 1517 1518 1520 1522 1524 1526 1527 1528 1529 1530 1531 1532 1533 1533 1534 1535 1535 1536 1536 1537 1537 1538 1538 1538 1538 1539 1539 1540 1541 1542
1505 1506 1509 1510 1518 1525 1518 1509 1505 1502 1502 1503 1503 1504 1506 1509 1511 1513 1514 1516 1518 1520 1522 1524 1525 1526 1528 1529 1530 1531 1532 1532 1533 1534 1535 1535 1536 1537 1537 1538 1538 1538 1539 1539 1539 1540 1541 1542 1543
1504 1505 1508 1511 1517 1518 1510 1503 1502 1501 1501 1502 1504 1505 1507 1510 1511 1512 1514 1516 1518 1520 1521 1523 1525 1526 1527 1528 1530 1531 1531 1532 1533 1534 1535 1536 1536 1537 1538 1538 1539 1539 1539 1540 1540 1541 1542 1543 1544
1504 1506 1508 1513 1512 1507 1502 1501 1500 1501 1501 1502 1503 1507 1508 1511 1512 1512 1514 1515 1517 1519 1521 1522 1524 1525 1527 1528 1529 1530 1531 1532 1533 1534 1535 1536 1537 1537 1538 1538 1539 1539 1539 1540 1541 1542 1543 1544 1545
1503 1504 1509 1512 1508 1503 1500 1500 1500 1500 1501 1502 1502 1506 1508 1511 1511 1512 1513 1515 1516 1518 1520 1522 1523 1525 1526 1527 1529 1530 1531 1532 1533 1534 1535 1536 1537 1537 1538 1539 1539 1539 1539 1541 1542 1543 1544 1545 1545
1502 1503 1511 1511 1506 1501 1499 1500 1500 1501 1501 1502 1503 1505 1508 1510 1510 1511 1513 1514 1516 1518 1519 1521 1523 1524 1525 1527 1528 1529 1531 1532 1533 1534 1535 1536 1537 1538 1538 1539 1540 1540 1540 1541 1542 1543 1544 1545 1546
1501 1504 1507 1506 1504 1502 1499 1499 1500 1500 1501 1502 1502 1505 1508 1509 1510 1511 1512 1514 1516 1517 1519 1520 1522 1523 1525 1526 1527 1529 1530 1531 1533 1534 1535 1536 1537 1538 1538 1539 1540 1541 1541 1542 1543 1544 1545 1546 1547
1498 1502 1503 1504 1502 1500 1497 1498 1499 1499 1500 1502 1502 1504 1506 1508 1509 1510 1512 1514 1515 1516 1518 1519 1521 1522 1524 1525 1527 1528 1530 1531 1532 1533 1534 1535 1536 1538 1539 1540 1540 1541 1542 1543 1543 1544 1546 1547 1548
1497 1504 1504 1500 1499 1498 1497 1498 1498 1499 1500 1501 1501 1502 1503 1505 1507 1509 1510 1512 1514 1515 1517 1518 1519 1521 1523 1524 1526 1528 1529 1530 1532 1533 1534 1535 1536 1537 1539 1540 1541 1541 1543 1544 1544 1545 1546 1547 1549
1496 1502 1498 1496 1495 1496 1496 1497 1498 1499 1499 1500 1501 1501 1502 1503 1505 1506 1507 1509 1511 1513 1515 1516 1518 1519 1521 1523 1525 1527 1528 1529 1531 1532 1533 1535 1536 1537 1538 1540 1541 1542 1543 1544 1545 1546 1547 1548 1549
1494 1496 1495 1494 1494 1495 1495 1496 1497 1498 1500 1499 1499 1499 1500 1502 1503 1504 1506 1507 1509 1511 1513 1515 1516 1518 1520 1521 1523 1525 1527 1528 1530 1531 1533 1534 1535 1536 1538 1539 1541 1542 1543 1544 1546 1547 1548 1549 1550
1493 1493 1493 1493 1493 1494 1494 1495 1496 1496 1497 1498 1498 1498 1498 1499 1501 1502 1504 1505 1508 1509 1511 1513 1515 1516 1518 1520 1521 1523 1525 1527 1529 1530 1531 1533 1534 1536 1537 1539 1540 1542 1543 1544 1546 1547 1548 1549 1551
1492 1492 1492 1493 1493 1493 1494 1494 1495 1495 1496 1496 1496 1496 1497 1498 1500 1502 1503 1504 1506 1507 1509 1511 1513 1515 1516 1518 1520 1521 1523 1525 1527 1529 1531 1532 1533 1535 1537 1538 1540 1541 1543 1544 1545 1547 1548 1549 1551
1490 1491 1491 1492 1492 1492 1493 1494 1494 1493 1494 1494 1494 1495 1496 1497 1499 1500 1501 1502 1503 1505 1507 1509 1510 1513 1514 1516 1518 1519 1522 1523 1525 1527 1529 1531 1532 1534 1536 1537 1539 1540 1542 1543 1545 1546 1547 1549 1550
1489 1491 1491 1490 1490 1491 1493 1494 1493 1491 1493 1493 1493 1494 1495 1496 1497 1498 1498 1499 1501 1503 1505 1507 1508 1510 1512 1514 1516 1517 1520 1521 1523 1526 1528 1529 1531 1533 1534 1536 1538 1539 1541 1543 1544 1545 1547 1548 1550
1490 1493 1494 1489 1489 1489 1495 1494 1490 1490 1491 1491 1491 1492 1493 1493 1494 1496 1497 1498 1499 1501 1502 1504 1506 1507 1510 1512 1514 1515 1517 1519 1521 1524 1526 1528 1530 1531 1533 1534 1536 1538 1540 1541 1543 1544 1545 1547 1549
1493 1496 1493 1490 1487 1488 1492 1492 1488 1488 1488 1489 1490 1490 1491 1491 1492 1493 1494 1495 1497 1498 1499 1501 1503 1504 1507 1509 1511 1513 1515 1517 1519 1521 1523 1525 1528 1530 1531 1532 1534 1536 1538 1540 1541 1543 1544 1546 1547
1494 1494 1492 1490 1487 1489 1491 1490 1488 1487 1487 1487 1488 1488 1489 1488 1489 1490 1492 1493 1494 1495 1497 1498 1500 1502 1504 1506 1508 1510 1512 1514 1516 1519 1521 1523 1525 1527 1529 1530 1532 1534 1536 1538 1539 1541 1543 1544 1546
1489 1490 1489 1487 1485 1488 1489 1488 1486 1485 1486 1486 1486 1486 1486 1486 1487 1488 1489 1491 1492 1493 1494 1495 1497 1498 1500 1502 1504 1506 1508 1511 1514 1516 1518 1520 1522 1524 1526 1528 1530 1531 1533 1535 1537 1539 1540 1542 1544
1488 1489 1489 1486 1485 1487 1489 1487 1484 1483 1483 1483 1483 1483 1483 1484 1485 1485 1486 1488 1489 1490 1491 1492 1494 1495 1497 1499 1501 1503 1506 1508 1510 1513 1515 1517 1519 1521 1523 1525 1527 1529 1530 1532 1534 1536 1538 1539 1542
1488 1488 1488 1488 1486 1486 1489 1487 1482 1480 1481 1481 1481 1481 1481 1482 1482 1482 1483 1484 1485 1486 1488 1489 1491 1493 1495 1497 1499 1501 1503 1504 1506 1508 1511 1514 1516 1518 1520 1522 1524 1525 1527 1529 1530 1532 1534 1536 1539
1486 1484 1485 1486 1489 1491 1489 1491 1481 1479 1480 1479 1479 1478 1478 1479 1479 1480 1480 1481 1482 1483 1485 1487 1489 1490 1492 1493 1495 1496 1497 1499 1502 1504 1507 1510 1512 1515 1517 1519 1520 1522 1524 1526 1528 1529 1531 1533 1535
1484 1483 1484 1485 1488 1492 1491 1493 1483 1479 1479 1478 1477 1476 1475 1476 1477 1477 1477 1478 1480 1481 1482 1484 1486 1487 1489 1490 1492 1493 1494 1497 1499 1502 1504 1506 1509 1511 1513 1515 1517 1519 1521 1522 1524 1526 1528 1530 1531
1483 1484 1485 1489 1492 1494 1489 1492 1484 1480 1475 1474 1474 1473 1473 1474 1474 1475 1476 1477 1477 1478 1480 1481 1483 1484 1486 1487 1489 1490 1491 1493 1495 1497 1499 1502 1504 1507 1509 1511 1513 1515 1517 1518 1520 1522 1524 1526 1528
1484 1490 1496 1496 1499 1493 1487 1487 1481 1474 1472 1471 1471 1471 1471 1472 1472 1472 1472 1473 1474 1475 1477 1478 1480 1481 1483 1484 1485 1487 1489 1490 1492 1494 1496 1498 1500 1502 1505 1507 1508 1510 1512 1515 1516 1518 1520 1522 1524
1486 1488 1495 1498 1496 1493 1488 1486 1477 1472 1471 1470 1470 1470 1470 1470 1470 1470 1470 1471 1472 1473 1474 1475 1476 1478 1480 1481 1482 1484 1486 1487 1489 1490 1492 1494 1496 1498 1501 1503 1504 1506 1508 1510 1512 1514 1516 1518 1519
1486 1488 1488 1495 1498 1498 1488 1483 1476 1471 1471 1470 1469 1469 1468 1468 1468 1468 1468 1469 1469 1470 1471 1472 1473 1474 1476 1477 1479 1480 1482 1483 1485 1487 1489 1490 1492 1495 1497 1499 1500 1502 1503 1506 1507 1509 1511 1513 1514
1484 1486 1492 1494 1495 1493 1488 1485 1478 1471 1470 1470 1469 1468 1467 1466 1466 1467 1467 1467 1467 1468 1468 1469 1470 1471 1472 1474 1475 1476 1478 1480 1482 1483 1485 1487 1488 1490 1493 1494 1496 1497 1499 1501 1503 1504 1506 1508 1509
1487 1488 1489 1492 1493 1493 1491 1481 1470 1468 1467 1468 1467 1466 1466 1465 1465 1465 1465 1465 1465 1465 1466 1467 1467 1468 1469 1470 1471 1473 1474 1476 1477 1479 1481 1483 1484 1486 1488 1490 1491 1493 1494 1496 1498 1499 1501 1503 1504
1485 1486 1489 1492 1492 1493 1490 1482 1467 1466 1466 1466 1465 1465 1464 1464 1463 1463 1463 1463 1462 1462 1463 1463 1464 1464 1465 1466 1468 1469 1470 1471 1473 1475 1477 1479 1480 1482 1483 1485 1487 1488 1490 1491 1493 1495 1496 1497 1499